AM EST SUN JAN 05 2020

North Carolina Golden Bears at Philadelphia Revolution - 2019-20 ...

1, 2, 3, T. North Carolina Golden Bears, -, -, -, -. Philadelphia Revolution, -, -, -, -. Game Preview · Comments. North Carolina... Philadelphia... G. 100; 20. GAA.

am est sun jan 05 2020

Previous Version

31 Dec 2019 ... ... MD/Washington DC 1059 AM EST Sun Jan 05 2020 The following are unofficial snowfall observations taken for the Saturday night timeframe ...

am est sun jan 05 2020

Sabres Skills Challenge - 01/05/20 | KeyBank Center ...

5 Jan 2020 ... January 05. Sabres Skills Challenge. Sun / Jan 5. 11:00 AM EST ... Skills Challenge presented by New Era Cap on Sunday, Jan. 5, 2020 at ...

am est sun jan 05 2020

River Flood Warning from SUN 5:00 AM EST until TUE 7:00 PM EST ...

River Flood Warning from SUN 5:00 AM EST until TUE 7:00 PM EST. Updated. Last updated January 12, 2020 4:45 am. January 11, 2020 9:19 pm wptaweather  ...

am est sun jan 05 2020

Rome Blue at 10U - SQUIRT NAVY (IND) - 2019-2020 Regular ...

Sun, Jan 05, 2020; SUNY Morrisville IcePlex, Madison Road, Morrisville, NY, USA; 10:15 AM EST. Rome Blue. RM B. VS Sun Jan 05 @ 10:15a. 10UN.

am est sun jan 05 2020

LEADERBOARD: Sun, Jan 05, 2020: 06:00 AM EST ...

5 Jan 2020 ... r/InsiderMemeTrading: Wolves of The Meme Economy. We Create. We Dominate . We Template. 25k Strong!

am est sun jan 05 2020

River Flood Warning from SUN 5:00 AM EST until TUE 7:00 PM EST ...

11 Jan 2020 ... River Flood Warning from SUN 5:00 AM EST until TUE 7:00 PM EST ... January 11, 2020 9:19 pm fortwaynesnbcweather Weather Alerts.

am est sun jan 05 2020

Washington Journal 01/05/2020 | Event | C-SPAN.org

January 05, 2020. Washington Journal 01/05/2020 New York Times's Peter Baker discusses his book on the history of impeachment, Hudson ... 7:00 AM EST  ...

am est sun jan 05 2020

AHA 247 at 10U Diorio 391 - 2019-20 Season Regular Season

General Info. Game Sheet; Date: Sun Jan 05, 2020; Time: 8:30 AM EST; Status: Scheduled; Description: 10U Diorio 391 vs AHA 247 ...

am est sun jan 05 2020

GVHA Stars at PeeWee GOLD - 2019-2020 Regular Season

Regular Season 2019-2020. 2019-2020 x ... Videos · Posts. Sun, Jan 05, 2020; CANCELLED ... Date: Sun Jan 05, 2020; Time: 9:30 AM EST; Status: Cancelled ...

am est sun jan 05 2020

Essex Youth 12U T4 at TBD - 2019-2020 Regular Season

Sun, Jan 05, 2020; Essex Junction Skating, Educational Drive, Essex Junction, VT, USA ... Date: Sun Jan 05, 2020; Time: 11:10 AM EST; Status: Scheduled ...

am est sun jan 05 2020

Devils Squirt Norris at Squirt Norris Purple - 2019-2020 Season ...

Sun, Jan 05, 2020; Dunkin' Donuts Center, La Salle Square, Providence, RI, USA ; 10:30 AM ... Date: Sun Jan 05, 2020; Time: 10:30 AM EST; Status: Scheduled ...

am est sun jan 05 2020

Revered Martyrs? Holy Hell! - European Tribune

Holy Hell! by ARGeezer Sun Jan 5th, 2020 at 02:46:40 AM EST. We have seen Qassem Soleimani refered to here and in the US media as a 'revered martyr'.

am est sun jan 05 2020

pbr | monster energy buckoff at the garden presented by ariat

Jan 3rd 2020 - 7:45 PM EST; Jan 4th 2020 - 6:45 PM EST; Jan 5th 2020 - 1:45 PM EST. Hooters- NYC ... 8am-9am Sunday, 1/5/20 at the Renaissance Hotel.

am est sun jan 05 2020

Happy New Year to one and all - European Tribune

by Frank Schnittger Tue Dec 31st, 2019 at 07:25:56 PM EST. For many people 2019 was a year ... Woot. by Zwackus on Sun Jan 5th, 2020 at 05:02:07 AM EST  ...

am est sun jan 05 2020

Dave East @ Noto Philly Jan 4 Tickets, Sat, Jan 4, 2020 at 10:00 PM ...

4 Jan 2020 ... Eventbrite - NOTO PHILLY presents Dave East @ Noto Philly Jan 4 - Saturday, January 4, 2020 | Sunday, ... Sun, Jan 5, 2020, 2:00 AM EST.

am est sun jan 05 2020

Boyle County, KY Weather and Climate Synopsis

Issued at 1100 AM EST SUN JAN 05 2020. NORTHEAST KENTUCKY CITY SKY/ WX TMP DP RH WIND PRES REMARKS LEXINGTON FAIR 41 29 62 SW12 ...

am est sun jan 05 2020

Somerset county Weather and Climate Synopsis

Hourly Observations For SOMERSET county 1200 PM EST SUN JAN 05 2020. New Jersey CITY SKY/WX TMP DP RH WIND PRES REMARKS Newark/Liberty ...

am est sun jan 05 2020

123 Andres at Miracle Theater! by Greater DC Diaper Bank

123 Andres at Miracle Theater! Sun, Jan 5th 2020 at 10:00 AM EST · By Greater DC Diaper Bank. Date & Time. Sun, Jan 5th 2020 at 10:00 AM EST.

am est sun jan 05 2020

Happy Perihelion Day! Earth Is Closest to the Sun Today | Space

5 Jan 2020 ... Earth reaches perihelion — its shortest distance from the sun all year — on Sunday (Jan. ... (Jan. 5) at 2:48 a.m. EST (0748 GMT), according to EarthSky.org. ... Best Night Sky Events of January 2020 (Stargazing Maps).

am est sun jan 05 2020

The Next Full Moon is the Wolf Moon – NASA Solar System ...

7 Jan 2020 ... As the Moon passes opposite the Sun it will spend about four hours in the ... a maximum altitude of 29.2 degrees at 12:15:28 p.m., sunset will be at 5:05 p.m., and ... 7, at 2:44 a.m. EST (2020-Jan-07 07:44 UTC with 4 minutes ...

am est sun jan 05 2020

Golden Globes 2020 list of winners and nominees

'Once Upon a Time in Hollywood' and '1917′ win big at 2020 Golden Globes. Published Sun, Jan 5 20207:45 PM EST Updated Mon, Jan 6 202012:06 AM EST ... at The Beverly Hilton Hotel on January 05, 2020 in Beverly Hills, California.

am est sun jan 05 2020

Rocket Launch: January 19, 2020 10:30 AM | SpaceX Falcon 9 ...

Jan 19, 2020 10:30 AM Kennedy Space Center LC-39A SpaceX Falcon 9 ... Rocket Launch: February 9, 2020 11:03 PM EST | ULA Atlas V Solar Orbiter. Feb 09 ...

am est sun jan 05 2020

CAPS ACADEMY SQUIRT WHITE LA 19-20 at Harford - 2019-2020 ...

Sun, Jan 05, 2020; Ice World, Governors Court, Abingdon, Harford, MD, USA - Rink A; 8:30 AM EST. CAPS ACADEMY SQUIRT WHITE LA 19-20 · SQBL19.

am est sun jan 05 2020

Forecast Discussion 1/5/2020 AM: Cold returns, along with some snow

Forecast Discussion 1/5/2020 AM: Cold returns, along with some snow. Forecast ... Posted: Jan 5, 2020 / 07:25 AM EST / Updated: Jan 5, 2020 / 07:25 AM EST.

am est sun jan 05 2020

January 2020 – Parker Solar Probe

23 Jan 2020 ... At 4:37 a.m. EST on Jan. 29, 2020, NASA's Parker Solar Probe broke speed and distance records as it completed its fourth close approach of ...

am est sun jan 05 2020

Alerts – MSU Alert

2 Jan 2020 ... Alert issued at 01/24/2020 05:24:29 PM EST. ... East Lansing campus reported by Michigan State University Police Date Reported: 01-05-2020

am est sun jan 05 2020

EST to Moscow Converter - Convert Eastern Time to Moscow ...

Quickly convert Eastern Standard Time (EST) to time in Moscow, Russia with this ... 2 am; 3 am; 4 am; 5 am; 6 am; 7 am; 8 am; 9 am; 10 am; 11 am; 12 pm; 1 pm ...

am est sun jan 05 2020

Jersey Penguins at Squirt A Black - 2019-2020 2019-2020

Sun, Jan 05, 2020; Red Bank Armory; 7:00 AM EST. Jersey Penguins. JRSY. VS Sun Jan 05 @ 7:00a. SqABlk · Squirt A Black ...

am est sun jan 05 2020

Get Ready For A 'Wolf Moon Eclipse' To Kick-Off 'Year of the Rat' As ...

4 Jan 2020 ... Occurring at 7:48 UTC on January 5, 2020 (so 2:48 a.m. EST), perihelion sees Earth get “just” 91,398,199 miles from the sun. It's caused by ...

am est sun jan 05 2020

Current Local Time in Toronto, Ontario, Canada

Daylight Saving Time starts on Sunday, March 8, 2020 at 2:00 am ... Nov 1, 2020. Back 1 ... About EST — Eastern Standard Time ... More Sun & Moon in Toronto

am est sun jan 05 2020

Text Product Index

Marine Weather Statement - MWSPHI, 826 AM EST Sun Jan 12 2020 ... Jan 13 2020. Record Report Atlantic City NJ - RERACY, 100 AM EST Wed Feb 05 2020.

am est sun jan 05 2020

Orlando Regional Kickball Tournament | CLUBWAKA

Start date: Jan 18, 2020 9:00 AM EST; Register by: Jan 17, 2020 7:00 PM EST; End ... Dec 03, 2019 - Jan 05, 2020: $65.00: Jan 06, 2020 - Jan 17, 2020: $75.00  ...

am est sun jan 05 2020

Travel Mites at ANDREW IRVING - 2019-2020 Regular Season

Regular Season 2019-2020. 2019-2020 x Regular ... Videos · Posts. Sun, Jan 05, 2020; TBD ... Date: Sun Jan 05, 2020; Time: 9:15 AM EST; Status: Scheduled ...

am est sun jan 05 2020

Enhancements to ACE Truck Manifest | U.S. Customs and Border ...

In April 2020, CBP will turn off the current UI, and users will be required to use the ... Jan 25, 2020@ 2200 to 0400 ET Sun. Jan 26. 01/24/2020 04:11 PM EST.

am est sun jan 05 2020

Events | Donald J. Trump for President

Fri, February 21, 2020 12:00 pm (PST). Add to my calendar Get ... Charlotte, NC. Mon, March 02, 2020 07:00 pm (EST) ... Sat, February 22, 2020 05:00 pm (EST).

am est sun jan 05 2020

2020 ... - American Pastured Poultry Producers Association

Sun, January 19, 2020. End ... Mon, January 20, 2020, 7:30 AM (EST) Tue, January 21, 2020, 5:00 PM (EST). Location ... Online registration ended Jan 5, 2020.

am est sun jan 05 2020

2011 U9 Boys at FORCE SC PRE DA - 2019/2020 2019/2020

26 Jan 2020 ... Sun, Jan 26, 2020; Pinnacle Sports - Fairlawn/Medina, Medina Road, ... Date: Sun Jan 26, 2020; Time: 10:35 AM EST; Status: Scheduled ...

am est sun jan 05 2020

Julian Castro Endorses Elizabeth Warren

Posted on Tue Jan 14, 2020 at 07:20:24 PM EST ... Posted on Mon Jan 06, 2020 at 10:28:26 AM EST ... Posted on Sun Jan 05, 2020 at 07:31:13 PM EST

am est sun jan 05 2020

Hwy. 401 reopens at Meadowvale after lumber truck rollover

5 Jan 2020 ... Last Updated Jan 6, 2020 at 6:39 am EST. AddThis Sharing ... 401 near Meadowvale Road following a collision on Jan 5, 2020. TWITTER/@ ...

am est sun jan 05 2020

Comments



Warning: file(keys/22.txt): failed to open stream: No such file or directory in /home/admin/web/vmi320931.contaboserver.net/public_html/theme/footer.php on line 50

Warning: shuffle() expects parameter 1 to be array, boolean given in /home/admin/web/vmi320931.contaboserver.net/public_html/theme/footer.php on line 51

Warning: Invalid argument supplied for foreach() in /home/admin/web/vmi320931.contaboserver.net/public_html/theme/footer.php on line 54


Subscribe kafickhilttownfec.ml